Time,TemperatureF,DewpointF,PressureIn,WindDirection,WindDirectionDegrees,WindSpeedMPH,WindSpeedGustMPH,Humidity,HourlyPrecipIn,Conditions,Clouds,dailyrainin,SoftwareType,DateUTC
2013-12-22 00:22:00,53.0,31.0,-100.00,North,-999,-999.0,-999.0,44,0.00,,,1.17,,2013-12-22 06:22:00,
2013-12-22 00:52:00,51.0,32.0,-100.00,North,-999,-999.0,-999.0,48,0.00,,,1.14,,2013-12-22 06:52:00,
2013-12-22 01:22:00,50.0,32.0,-100.00,North,-999,-999.0,-999.0,49,0.00,,,1.14,,2013-12-22 07:22:00,
2013-12-22 01:52:00,46.0,32.0,-100.00,North,-999,-999.0,-999.0,57,0.00,,,1.14,,2013-12-22 07:52:00,
2013-12-22 02:22:00,45.0,31.0,-100.00,North,-999,-999.0,-999.0,59,0.00,,,1.14,,2013-12-22 08:22:00,
2013-12-22 02:52:00,45.0,31.0,-100.00,North,-999,-999.0,-999.0,58,0.00,,,1.13,,2013-12-22 08:52:00,
2013-12-22 03:22:00,47.0,32.0,-100.00,North,-999,-999.0,-999.0,55,0.00,,,1.13,,2013-12-22 09:22:00,
2013-12-22 03:53:00,50.0,31.0,-100.00,North,-999,-999.0,-999.0,49,0.00,,,1.13,,2013-12-22 09:53:00,
2013-12-22 04:23:00,49.0,31.0,-100.00,North,-999,-999.0,-999.0,50,0.00,,,1.13,,2013-12-22 10:23:00,
2013-12-22 04:53:00,50.0,31.0,-100.00,North,-999,-999.0,-999.0,49,0.00,,,1.13,,2013-12-22 10:53:00,
2013-12-22 05:22:00,53.0,31.0,-100.00,North,-999,-999.0,-999.0,44,0.00,,,1.12,,2013-12-22 11:22:00,
2013-12-22 05:52:00,52.0,31.0,-100.00,North,-999,-999.0,-999.0,45,0.00,,,1.12,,2013-12-22 11:52:00,
2013-12-22 06:22:00,51.0,32.0,-100.00,North,-999,-999.0,-999.0,48,0.00,,,1.12,,2013-12-22 12:22:00,
2013-12-22 06:52:00,48.0,32.0,-100.00,North,-999,-999.0,-999.0,54,0.00,,,1.05,,2013-12-22 12:52:00,
2013-12-22 07:21:00,44.0,33.0,-100.00,North,-999,-999.0,-999.0,64,0.00,,,0.58,,2013-12-22 13:21:00,
2013-12-22 07:52:00,40.0,35.0,-100.00,North,-999,-999.0,-999.0,81,0.00,,,0.25,,2013-12-22 13:52:00,
2013-12-22 08:22:00,37.0,37.0,-100.00,North,-999,-999.0,-999.0,100,0.00,,,0.24,,2013-12-22 14:22:00,
2013-12-22 08:52:00,37.0,37.0,-100.00,North,-999,-999.0,-999.0,100,0.00,,,0.22,,2013-12-22 14:52:00,
2013-12-22 09:22:00,38.0,38.0,-100.00,North,-999,-999.0,-999.0,100,0.00,,,0.20,,2013-12-22 15:22:00,
2013-12-22 09:53:00,37.0,37.0,-100.00,North,-999,-999.0,-999.0,100,0.00,,,0.12,,2013-12-22 15:53:00,
2013-12-22 10:23:00,37.0,37.0,-100.00,North,-999,-999.0,-999.0,100,0.00,,,0.06,,2013-12-22 16:23:00,
2013-12-22 10:52:00,38.0,38.0,-100.00,North,-999,-999.0,-999.0,100,0.00,,,0.01,,2013-12-22 16:52:00,
2013-12-22 11:22:00,38.0,38.0,-100.00,North,-999,-999.0,-999.0,99,0.00,,,0.01,,2013-12-22 17:22:00,
2013-12-22 11:52:00,40.0,39.0,-100.00,North,-999,-999.0,-999.0,97,0.00,,,0.01,,2013-12-22 17:52:00,
2013-12-22 12:21:00,40.0,37.0,-100.00,North,-999,-999.0,-999.0,86,0.00,,,0.00,,2013-12-22 18:21:00,
2013-12-22 12:52:00,40.0,34.0,-100.00,North,-999,-999.0,-999.0,80,0.00,,,0.00,,2013-12-22 18:52:00,
2013-12-22 13:22:00,43.0,32.0,-100.00,North,-999,-999.0,-999.0,67,0.00,,,0.00,,2013-12-22 19:22:00,
2013-12-22 13:52:00,44.0,32.0,-100.00,North,-999,-999.0,-999.0,62,0.00,,,0.00,,2013-12-22 19:52:00,
2013-12-22 14:22:00,44.0,29.0,-100.00,North,-999,-999.0,-999.0,54,0.00,,,0.00,,2013-12-22 20:22:00,
2013-12-22 14:53:00,45.0,30.0,-100.00,North,-999,-999.0,-999.0,54,0.00,,,0.00,,2013-12-22 20:53:00,
2013-12-22 15:22:00,45.0,28.0,-100.00,North,-999,-999.0,-999.0,51,0.00,,,0.00,,2013-12-22 21:22:00,
2013-12-22 15:53:00,45.0,28.0,-100.00,North,-999,-999.0,-999.0,50,0.00,,,0.00,,2013-12-22 21:53:00,
2013-12-22 16:23:00,46.0,29.0,-100.00,North,-999,-999.0,-999.0,51,0.00,,,0.00,,2013-12-22 22:23:00,
2013-12-22 16:53:00,45.0,28.0,-100.00,North,-999,-999.0,-999.0,52,0.00,,,0.00,,2013-12-22 22:53:00,
2013-12-22 17:22:00,44.0,28.0,-100.00,North,-999,-999.0,-999.0,52,0.00,,,0.00,,2013-12-22 23:22:00,
2013-12-22 17:53:00,43.0,27.0,-100.00,North,-999,-999.0,-999.0,52,0.00,,,0.00,,2013-12-22 23:53:00,
2013-12-22 18:22:00,42.0,27.0,-100.00,North,-999,-999.0,-999.0,55,0.00,,,0.00,,2013-12-23 00:22:00,
2013-12-22 18:52:00,41.0,27.0,-100.00,North,-999,-999.0,-999.0,57,0.00,,,0.00,,2013-12-23 00:52:00,
2013-12-22 19:22:00,40.0,27.0,-100.00,North,-999,-999.0,-999.0,59,0.00,,,0.00,,2013-12-23 01:22:00,
2013-12-22 19:52:00,40.0,26.0,-100.00,North,-999,-999.0,-999.0,59,0.00,,,0.00,,2013-12-23 01:52:00,
2013-12-22 20:21:00,39.0,25.0,-100.00,North,-999,-999.0,-999.0,57,0.00,,,0.00,,2013-12-23 02:21:00,
2013-12-22 20:42:00,39.0,25.0,-100.00,North,-999,-999.0,-999.0,56,0.00,,,0.00,,2013-12-23 02:42:00,
2013-12-22 20:52:00,39.0,25.0,-100.00,North,-999,-999.0,-999.0,56,0.00,,,0.00,,2013-12-23 02:52:00,
2013-12-22 21:22:00,38.0,25.0,-100.00,North,-999,-999.0,-999.0,59,0.00,,,0.00,,2013-12-23 03:22:00,
2013-12-22 21:53:00,37.0,25.0,-100.00,North,-999,-999.0,-999.0,61,-99.99,,,0.00,,2013-12-23 03:53:00,
2013-12-22 22:23:00,36.0,24.0,-100.00,North,-999,-999.0,-999.0,62,0.00,,,0.00,,2013-12-23 04:23:00,
2013-12-22 22:52:00,35.0,24.0,-100.00,North,-999,-999.0,-999.0,64,0.00,,,0.00,,2013-12-23 04:52:00,
2013-12-22 23:23:00,34.0,25.0,-100.00,North,-999,-999.0,-999.0,67,0.00,,,0.00,,2013-12-23 05:23:00,
2013-12-22 23:52:00,34.0,24.0,-100.00,North,-999,-999.0,-999.0,67,0.00,,,0.00,,2013-12-23 05:52:00,